| time (UTC) | temp C | wind direction | speed KPH | gust KPH | rain 1hr cm | rain 24hr cm | rain mn cm | humidity % | barometer mb |
| 20260508121933 | 12 | 33 | 8.0 | 16.1 | 0.00 | 0.00 | 0.00 | 82 | 980.8 |
| 20260508115935 | 13 | 61 | 9.7 | 16.1 | 0.00 | 0.00 | 0.00 | 73 | 980.7 |
| 20260508113935 | 14 | 45 | 8.0 | 11.3 | 0.00 | 0.00 | 0.00 | 72 | 980.9 |
| 20260508112934 | 14 | 110 | 9.7 | 12.9 | 0.00 | 0.00 | 0.00 | 71 | 980.9 |
| 20260508111934 | 15 | 69 | 9.7 | 14.5 | 0.00 | 0.00 | 0.00 | 66 | 980.8 |
| 20260508110935 | 15 | 6 | 4.8 | 9.7 | 0.00 | 0.00 | 0.00 | 67 | 980.8 |
| 20260508104934 | 15 | 54 | 8.0 | 12.9 | 0.00 | 0.00 | 0.00 | 66 | 980.6 |
| 20260508102935 | 16 | 323 | 3.2 | 9.7 | 0.00 | 0.00 | 0.00 | 65 | 980.7 |
| 20260508101932 | 16 | 2 | 1.6 | 1.6 | 0.00 | 0.00 | 0.00 | 67 | 980.8 |
| 20260508100935 | 15 | 338 | 0.0 | 1.6 | 0.00 | 0.00 | 0.00 | 70 | 980.9 |
| 20260508094932 | 15 | 151 | 0.0 | 3.2 | 0.00 | 0.00 | 0.00 | 71 | 980.8 |
| 20260508091934 | 13 | 202 | 0.0 | 1.6 | 0.00 | 0.00 | 0.00 | 81 | 980.9 |
| 20260508084934 | 13 | 225 | 0.0 | 0.0 | 0.00 | 0.00 | 0.00 | 75 | 980.7 |
| 20260508083936 | 13 | 225 | 0.0 | 0.0 | 0.00 | 0.00 | 0.00 | 76 | 980.7 |
| 20260508082935 | 12 | 225 | 0.0 | 0.0 | 0.00 | 0.00 | 0.00 | 82 | 980.7 |
| 20260508081934 | 12 | 267 | 0.0 | 1.6 | 0.00 | 0.00 | 0.00 | 84 | 980.2 |
| 20260508075935 | 12 | 315 | 0.0 | 0.0 | 0.00 | 0.00 | 0.00 | 82 | 980.6 |
| 20260508074932 | 12 | 338 | 0.0 | 0.0 | 0.00 | 0.00 | 0.00 | 82 | 980.6 |
| 20260508073935 | 12 | 338 | 0.0 | 0.0 | 0.00 | 0.00 | 0.00 | 82 | 980.2 |
| 20260508071932 | 11 | 338 | 1.6 | 1.6 | 0.00 | 0.00 | 0.00 | 86 | 980.5 |
| 20260508070935 | 11 | 338 | 0.0 | 1.6 | 0.00 | 0.00 | 0.00 | 86 | 980.7 |
| 20260508065933 | 10 | 326 | 1.6 | 4.8 | 0.00 | 0.00 | 0.00 | 90 | 980.7 |
| 20260508064932 | 10 | 338 | 0.0 | 3.2 | 0.00 | 0.00 | 0.00 | 93 | 980.4 |
| 20260508063935 | 10 | 338 | 0.0 | 0.0 | 0.00 | 0.00 | 0.00 | 93 | 980.4 |
| 20260508061934 | 9 | 225 | 0.0 | 0.0 | 0.00 | 0.00 | 0.00 | 92 | 980.5 |
| 20260508054933 | 9 | 338 | 0.0 | 0.0 | 0.00 | 0.00 | 0.00 | 93 | 980.1 |
| 20260508053935 | 9 | 353 | 0.0 | 1.6 | 0.00 | 0.00 | 0.00 | 93 | 980.0 |
| 20260508051935 | 8 | 135 | 0.0 | 0.0 | 0.00 | 0.00 | 0.00 | 93 | 979.8 |
| 20260508050935 | 8 | 135 | 0.0 | 0.0 | 0.00 | 0.00 | 0.00 | 92 | 979.9 |
| 20260508044932 | 8 | 338 | 3.2 | 4.8 | 0.00 | 0.00 | 0.00 | 94 | 979.8 |
| 20260508034933 | 8 | 45 | 1.6 | 3.2 | 0.00 | 0.00 | 0.00 | 94 | 980.2 |
| 20260508032932 | 8 | 68 | 0.0 | 1.6 | 0.00 | 0.00 | 0.00 | 94 | 980.2 |
| 20260508031934 | 8 | 152 | 0.0 | 0.0 | 0.00 | 0.00 | 0.00 | 94 | 980.1 |
| 20260508025932 | 8 | 20 | 0.0 | 0.0 | 0.00 | 0.00 | 0.00 | 94 | 980.1 |
| 20260508024933 | 8 | 338 | 0.0 | 0.0 | 0.00 | 0.00 | 0.00 | 93 | 980.3 |
| 20260508022932 | 8 | 0 | 0.0 | 0.0 | 0.00 | 0.00 | 0.00 | 93 | 980.4 |
| 20260508015931 | 8 | 68 | 1.6 | 3.2 | 0.00 | 0.00 | 0.00 | 92 | 980.5 |
| 20260508014933 | 8 | 0 | 0.0 | 1.6 | 0.00 | 0.00 | 0.00 | 91 | 980.4 |
| 20260508012934 | 8 | 5 | 0.0 | 1.6 | 0.00 | 0.00 | 0.00 | 89 | 980.7 |
| 20260508011931 | 9 | 338 | 0.0 | 0.0 | 0.00 | 0.00 | 0.00 | 88 | 980.8 |
| 20260508005934 | 10 | 338 | 1.6 | 3.2 | 0.00 | 0.00 | 0.00 | 88 | 981.0 |
| 20260508004931 | 10 | 22 | 0.0 | 1.6 | 0.00 | 0.00 | 0.00 | 90 | 981.1 |
| 20260508002932 | 10 | 315 | 0.0 | 1.6 | 0.00 | 0.00 | 0.00 | 90 | 981.4 |
| 20260508001931 | 9 | 315 | 0.0 | 0.0 | 0.00 | 0.00 | 0.00 | 89 | 981.6 |
| 20260507235936 | 10 | 315 | 0.0 | 1.6 | 0.00 | 0.00 | 0.00 | 89 | 981.5 |
| 20260507234931 | 10 | 315 | 0.0 | 1.6 | 0.00 | 0.00 | 0.00 | 89 | 981.6 |
| 20260507232931 | 10 | 338 | 0.0 | 1.6 | 0.00 | 0.00 | 0.00 | 89 | 981.5 |
| 20260507231932 | 10 | 315 | 0.0 | 1.6 | 0.00 | 0.00 | 0.00 | 89 | 981.8 |
| 20260507224932 | 10 | 338 | 0.0 | 0.0 | 0.00 | 0.00 | 0.00 | 87 | 981.7 |
| 20260507222931 | 11 | 338 | 0.0 | 0.0 | 0.00 | 0.00 | 0.00 | 84 | 981.9 |
| 20260507221931 | 12 | 338 | 0.0 | 1.6 | 0.00 | 0.00 | 0.00 | 83 | 981.9 |
| 20260507215932 | 11 | 338 | 3.2 | 8.0 | 0.00 | 0.00 | 0.00 | 85 | 982.2 |
| 20260507214932 | 11 | 348 | 3.2 | 4.8 | 0.00 | 0.00 | 0.00 | 85 | 982.3 |
| 20260507212931 | 11 | 300 | 1.6 | 4.8 | 0.00 | 0.00 | 0.00 | 82 | 982.4 |
| 20260507211932 | 11 | 338 | 1.6 | 3.2 | 0.00 | 0.00 | 0.00 | 81 | 982.2 |
| 20260507205930 | 11 | 344 | 0.0 | 1.6 | 0.00 | 0.00 | 0.00 | 79 | 982.0 |
| 20260507204932 | 11 | 321 | 3.2 | 4.8 | 0.00 | 0.00 | 0.00 | 80 | 982.1 |
| 20260507202932 | 12 | 0 | 3.2 | 8.0 | 0.00 | 0.00 | 0.00 | 80 | 981.6 |
| 20260507201932 | 12 | 338 | 0.0 | 1.6 | 0.00 | 0.00 | 0.00 | 79 | 981.4 |
| 20260507195930 | 13 | 12 | 0.0 | 1.6 | 0.00 | 0.00 | 0.00 | 74 | 981.2 |
| 20260507194933 | 14 | 18 | 1.6 | 4.8 | 0.00 | 0.00 | 0.00 | 71 | 981.0 |
| 20260507192931 | 15 | 225 | 0.0 | 0.0 | 0.00 | 0.00 | 0.00 | 73 | 980.9 |
| 20260507191930 | 15 | 36 | 0.0 | 4.8 | 0.00 | 0.00 | 0.00 | 71 | 980.9 |
| 20260507190934 | 15 | 61 | 3.2 | 8.0 | 0.00 | 0.00 | 0.00 | 70 | 980.8 |
| 20260507185933 | 16 | 55 | 3.2 | 4.8 | 0.00 | 0.00 | 0.00 | 70 | 980.5 |
| 20260507184932 | 16 | 39 | 4.8 | 9.7 | 0.00 | 0.00 | 0.00 | 68 | 980.6 |
| 20260507182932 | 16 | 45 | 4.8 | 11.3 | 0.00 | 0.00 | 0.00 | 65 | 980.5 |
| 20260507181931 | 17 | 38 | 3.2 | 8.0 | 0.00 | 0.00 | 0.00 | 64 | 980.5 |
| 20260507171933 | 18 | 69 | 3.2 | 8.0 | 0.00 | 0.00 | 0.00 | 60 | 980.4 |
| 20260507170933 | 18 | 170 | 0.0 | 3.2 | 0.00 | 0.00 | 0.00 | 67 | 980.3 |
| 20260507165932 | 17 | 198 | 1.6 | 4.8 | 0.00 | 0.00 | 0.00 | 67 | 980.3 |
| 20260507164932 | 17 | 128 | 0.0 | 3.2 | 0.00 | 0.00 | 0.00 | 69 | 980.1 |
| 20260507163932 | 18 | 202 | 0.0 | 1.6 | 0.00 | 0.00 | 0.00 | 67 | 980.0 |
| 20260507162933 | 17 | 157 | 0.0 | 3.2 | 0.00 | 0.00 | 0.00 | 68 | 980.1 |
| 20260507161932 | 17 | 180 | 3.2 | 9.7 | 0.00 | 0.00 | 0.00 | 70 | 980.1 |
| 20260507160932 | 18 | 119 | 1.6 | 3.2 | 0.00 | 0.00 | 0.00 | 69 | 980.3 |
| 20260507155933 | 17 | 113 | 1.6 | 3.2 | 0.00 | 0.00 | 0.00 | 71 | 980.3 |
| 20260507154932 | 17 | 137 | 0.0 | 1.6 | 0.00 | 0.00 | 0.00 | 71 | 980.2 |
| 20260507153932 | 17 | 179 | 4.8 | 11.3 | 0.00 | 0.00 | 0.00 | 70 | 980.3 |
| 20260507152933 | 19 | 213 | 3.2 | 4.8 | 0.00 | 0.00 | 0.00 | 68 | 980.5 |
| 20260507151932 | 18 | 135 | 3.2 | 8.0 | 0.00 | 0.00 | 0.00 | 59 | 980.5 |
| 20260507150931 | 18 | 68 | 8.0 | 16.1 | 0.00 | 0.00 | 0.00 | 57 | 980.3 |
| 20260507145933 | 19 | 23 | 9.7 | 14.5 | 0.00 | 0.00 | 0.00 | 54 | 980.3 |
| 20260507144933 | 18 | 51 | 3.2 | 8.0 | 0.00 | 0.00 | 0.00 | 55 | 980.2 |
| 20260507142933 | 20 | 142 | 3.2 | 8.0 | 0.00 | 0.00 | 0.00 | 56 | 980.3 |
| 20260507140931 | 19 | 353 | 3.2 | 8.0 | 0.00 | 0.00 | 0.00 | 58 | 980.5 |
| 20260507134932 | 19 | 69 | 3.2 | 9.7 | 0.00 | 0.00 | 0.00 | 67 | 980.7 |
| 20260507132933 | 18 | 129 | 0.0 | 3.2 | 0.00 | 0.00 | 0.00 | 72 | 980.6 |
| 20260507130931 | 16 | 320 | 0.0 | 1.6 | 0.00 | 0.00 | 0.00 | 78 | 980.9 |
| 20260507124932 | 16 | 338 | 0.0 | 0.0 | 0.00 | 0.00 | 0.00 | 76 | 981.1 |
| 20260507123933 | 16 | 19 | 0.0 | 0.0 | 0.00 | 0.00 | 0.00 | 75 | 981.3 |
| 20260507122931 | 16 | 164 | 0.0 | 1.6 | 0.00 | 0.00 | 0.00 | 75 | 981.5 |